Вернуться в каталог

FENGYUN 1C DEB

АктивенSSO
NORAD 30074·DEBRIS·🇨🇳 China

Запущен May 10, 1999 с Taiyuan Satellite Launch Center

Loading…

Ближайшие Пролёты (ближайшие 24 часа)

TLE

СвежийSource: Space-Track

Эпоха: Sep 14, 2026, 16:22 UTC

1 30074U 99025QB  26257.68240402  .00001576  00000-0  81533-3 0  9999
2 30074  99.1126 334.2887 0095833  95.4291 265.7822 14.14100379  5318

Отслеживайте FENGYUN 1C DEB в реальном времени с AllMySat

Download on the App Store